When you browse on this site, cookies collect data to enhance your experience and personalize the content and advertising you see.
Visit our Privacy Policy to learn more. By continuing to use the site, you agree to this use of cookies and data.
  • In Lithuania
  • List of Countries
  • For 7 days
  • Water Temperature
  • Weather Map
  • Weather Widgets
  • user-avatar
    Login

    Hourly Weather Poprad

    Today, 27 May, Wednesday

    Time Temperature Precipitation Wind Pressure Humidity
    00:00 +5°C° 0 mm 3 mps 708 mmHg 95%
    01:00 +7°C° 0 mm 3 mps 708 mmHg 96%
    02:00 +5°C° 0 mm 3 mps 708 mmHg 96%
    03:00 +5°C° 0 mm 3 mps 708 mmHg 96%
    04:00 +6°C° 0 mm 2 mps 708 mmHg 97%
    05:00 +7°C° 0 mm 3 mps 708 mmHg 91%
    06:00 +9°C° 0 mm 3 mps 709 mmHg 85%
    07:00 +10°C° 0 mm 4 mps 709 mmHg 80%
    08:00 +11°C° 0.1 mm 4 mps 709 mmHg 75%
    09:00 +12°C° 0.1 mm 4 mps 709 mmHg 70%
    10:00 +13°C° 0.1 mm 4 mps 709 mmHg 66%
    11:00 +14°C° 0.1 mm 4 mps 709 mmHg 63%
    12:00 +14°C° 0.1 mm 4 mps 709 mmHg 60%
    13:00 +15°C° 0.1 mm 4 mps 708 mmHg 58%
    14:00 +15°C° 0.2 mm 4 mps 708 mmHg 60%
    15:00 +14°C° 0.2 mm 4 mps 708 mmHg 63%
    16:00 +14°C° 0.2 mm 4 mps 707 mmHg 65%
    17:00 +13°C° 0.1 mm 3 mps 707 mmHg 72%
    18:00 +11°C° 0.1 mm 3 mps 707 mmHg 79%
    19:00 +10°C° 0.1 mm 2 mps 707 mmHg 86%
    20:00 +9°C° 0.1 mm 2 mps 707 mmHg 89%
    21:00 +8°C° 0.1 mm 2 mps 706 mmHg 91%
    22:00 +7°C° 0.1 mm 2 mps 706 mmHg 94%
    23:00 +7°C° 0 mm 2 mps 706 mmHg 94%

    Tomorrow, 28 May, Thursday

    Time Temperature Precipitation Wind Pressure Humidity
    00:00 +7°C° 0 mm 2 mps 706 mmHg 95%
    01:00 +7°C° 0 mm 2 mps 706 mmHg 95%
    02:00 +7°C° 0 mm 1 mps 706 mmHg 95%
    03:00 +7°C° 0 mm 1 mps 705 mmHg 96%
    04:00 +7°C° 0 mm 1 mps 705 mmHg 96%
    05:00 +8°C° 0 mm 2 mps 705 mmHg 90%
    06:00 +9°C° 0 mm 2 mps 705 mmHg 84%
    07:00 +12°C° 0 mm 2 mps 705 mmHg 79%
    08:00 +13°C° 0.3 mm 2 mps 705 mmHg 74%
    09:00 +14°C° 0.3 mm 2 mps 705 mmHg 70%
    10:00 +14°C° 0.3 mm 3 mps 705 mmHg 66%
    11:00 +14°C° 0.2 mm 3 mps 704 mmHg 63%
    12:00 +16°C° 0.2 mm 3 mps 704 mmHg 61%
    13:00 +16°C° 0.2 mm 3 mps 704 mmHg 59%
    14:00 +15°C° 0.3 mm 4 mps 703 mmHg 62%
    15:00 +14°C° 0.3 mm 4 mps 703 mmHg 65%
    16:00 +14°C° 0.3 mm 4 mps 703 mmHg 69%
    17:00 +12°C° 0.2 mm 3 mps 702 mmHg 76%
    18:00 +11°C° 0.2 mm 3 mps 702 mmHg 82%
    19:00 +9°C° 0.2 mm 3 mps 702 mmHg 89%
    20:00 +9°C° 0.1 mm 2 mps 702 mmHg 91%
    21:00 +8°C° 0.1 mm 2 mps 702 mmHg 94%
    22:00 +8°C° 0.1 mm 2 mps 702 mmHg 96%
    23:00 +8°C° 0 mm 2 mps 702 mmHg 96%

    Day after tomorrow, 29 May, Friday

    Time Temperature Precipitation Wind Pressure Humidity
    00:00 +7°C° 0 mm 2 mps 702 mmHg 95%
    01:00 +7°C° 0 mm 2 mps 702 mmHg 95%
    02:00 +7°C° 0 mm 2 mps 702 mmHg 95%
    03:00 +7°C° 0 mm 2 mps 702 mmHg 96%
    04:00 +7°C° 0 mm 2 mps 702 mmHg 96%
    05:00 +8°C° 0 mm 2 mps 702 mmHg 91%
    06:00 +9°C° 0 mm 3 mps 702 mmHg 86%
    07:00 +10°C° 0 mm 3 mps 703 mmHg 81%
    08:00 +11°C° 0.1 mm 3 mps 703 mmHg 78%
    09:00 +12°C° 0.1 mm 3 mps 703 mmHg 75%
    10:00 +13°C° 0.1 mm 3 mps 703 mmHg 71%
    11:00 +13°C° 0.2 mm 4 mps 703 mmHg 71%
    12:00 +13°C° 0.2 mm 4 mps 702 mmHg 70%
    13:00 +13°C° 0.2 mm 4 mps 702 mmHg 69%
    14:00 +13°C° 0.1 mm 4 mps 702 mmHg 69%
    15:00 +13°C° 0.1 mm 4 mps 701 mmHg 69%
    16:00 +13°C° 0.1 mm 4 mps 701 mmHg 69%
    17:00 +11°C° 0.1 mm 3 mps 701 mmHg 76%
    18:00 +10°C° 0.1 mm 3 mps 701 mmHg 82%
    19:00 +9°C° 0.1 mm 2 mps 701 mmHg 89%
    20:00 +9°C° 0.2 mm 2 mps 701 mmHg 91%
    21:00 +8°C° 0.2 mm 2 mps 701 mmHg 93%
    22:00 +9°C° 0.2 mm 1 mps 701 mmHg 96%
    23:00 +9°C° 0.1 mm 1 mps 701 mmHg 96%

    30 May, Saturday

    Time Temperature Precipitation Wind Pressure Humidity
    00:00 +9°C° 0.1 mm 1 mps 701 mmHg 96%
    01:00 +8°C° 0.1 mm 1 mps 701 mmHg 96%
    02:00 +8°C° 0 mm 1 mps 701 mmHg 96%
    03:00 +7°C° 0 mm 1 mps 701 mmHg 96%
    04:00 +7°C° 0 mm 1 mps 700 mmHg 97%
    05:00 +8°C° 0 mm 1 mps 700 mmHg 91%
    06:00 +8°C° 0 mm 2 mps 701 mmHg 85%
    07:00 +9°C° 0 mm 2 mps 701 mmHg 79%
    08:00 +10°C° 0 mm 2 mps 701 mmHg 73%
    09:00 +12°C° 0 mm 2 mps 701 mmHg 66%
    10:00 +13°C° 0 mm 2 mps 702 mmHg 60%
    11:00 +13°C° 0.1 mm 2 mps 701 mmHg 59%
    12:00 +14°C° 0.1 mm 2 mps 701 mmHg 58%
    13:00 +13°C° 0.1 mm 3 mps 701 mmHg 58%
    14:00 +13°C° 0.1 mm 3 mps 701 mmHg 60%
    15:00 +13°C° 0.1 mm 3 mps 700 mmHg 62%
    16:00 +12°C° 0.1 mm 3 mps 700 mmHg 64%
    17:00 +12°C° 0 mm 2 mps 700 mmHg 70%
    18:00 +9°C° 0 mm 2 mps 700 mmHg 77%
    19:00 +9°C° 0 mm 1 mps 699 mmHg 83%
    20:00 +8°C° 0 mm 1 mps 699 mmHg 87%
    21:00 +7°C° 0 mm 1 mps 699 mmHg 90%
    22:00 +6°C° 0 mm 1 mps 699 mmHg 93%
    23:00 +6°C° 0 mm 1 mps 699 mmHg 93%

    31 May, Sunday

    Time Temperature Precipitation Wind Pressure Humidity
    00:00 +6°C° 0 mm 1 mps 699 mmHg 93%
    01:00 +6°C° 0 mm 1 mps 699 mmHg 93%
    02:00 +6°C° 0 mm 1 mps 699 mmHg 93%
    03:00 +6°C° 0 mm 1 mps 699 mmHg 92%
    04:00 +6°C° 0 mm 1 mps 698 mmHg 92%
    05:00 +7°C° 0 mm 1 mps 698 mmHg 87%
    06:00 +8°C° 0 mm 2 mps 699 mmHg 82%
    07:00 +9°C° 0 mm 2 mps 699 mmHg 77%
    08:00 +10°C° 0.3 mm 2 mps 699 mmHg 79%
    09:00 +11°C° 0.3 mm 1 mps 699 mmHg 81%
    10:00 +11°C° 0.3 mm 1 mps 698 mmHg 83%
    11:00 +10°C° 1.2 mm 2 mps 698 mmHg 87%
    12:00 +9°C° 1.2 mm 2 mps 698 mmHg 91%
    13:00 +9°C° 1.2 mm 2 mps 697 mmHg 95%
    14:00 +9°C° 0.8 mm 2 mps 697 mmHg 96%
    15:00 +9°C° 0.8 mm 2 mps 697 mmHg 96%
    16:00 +9°C° 0.8 mm 2 mps 697 mmHg 96%
    17:00 +9°C° 0.8 mm 2 mps 697 mmHg 97%
    18:00 +9°C° 0.8 mm 2 mps 697 mmHg 97%
    19:00 +8°C° 0.8 mm 2 mps 697 mmHg 97%
    20:00 +9°C° 1 mm 2 mps 697 mmHg 98%
    21:00 +9°C° 1 mm 2 mps 697 mmHg 98%
    22:00 +9°C° 1 mm 2 mps 697 mmHg 98%
    23:00 +10°C° 0.5 mm 2 mps 697 mmHg 98%

    1 June, Monday

    Time Temperature Precipitation Wind Pressure Humidity
    00:00 +10°C° 0.5 mm 2 mps 697 mmHg 98%
    01:00 +12°C° 0.5 mm 2 mps 697 mmHg 98%
    02:00 +12°C° 0.1 mm 2 mps 697 mmHg 98%
    03:00 +12°C° 0.1 mm 2 mps 698 mmHg 98%
    04:00 +12°C° 0.1 mm 2 mps 698 mmHg 98%
    05:00 +12°C° 0.1 mm 2 mps 698 mmHg 97%
    06:00 +12°C° 0.1 mm 2 mps 698 mmHg 96%
    07:00 +12°C° 0.1 mm 3 mps 698 mmHg 96%
    08:00 +12°C° 0.3 mm 3 mps 698 mmHg 95%
    09:00 +12°C° 0.3 mm 3 mps 699 mmHg 95%
    10:00 +12°C° 0.3 mm 3 mps 699 mmHg 95%
    11:00 +12°C° 0.3 mm 3 mps 699 mmHg 94%
    12:00 +12°C° 0.3 mm 3 mps 699 mmHg 93%
    13:00 +12°C° 0.3 mm 3 mps 699 mmHg 92%
    14:00 +12°C° 0.2 mm 3 mps 699 mmHg 90%
    15:00 +13°C° 0.2 mm 4 mps 699 mmHg 88%
    16:00 +13°C° 0.2 mm 4 mps 699 mmHg 85%
    17:00 +13°C° 0.2 mm 3 mps 699 mmHg 88%
    18:00 +12°C° 0.2 mm 3 mps 699 mmHg 91%
    19:00 +12°C° 0.2 mm 2 mps 699 mmHg 94%
    20:00 +12°C° 0 mm 2 mps 699 mmHg 95%
    21:00 +10°C° 0 mm 2 mps 700 mmHg 96%
    22:00 +9°C° 0 mm 2 mps 700 mmHg 97%
    23:00 +9°C° 0 mm 2 mps 700 mmHg 97%
    Show more